Location: Roc des P�zouls
(43.9667°N, 3.5500°E)
Time: 20:32:58
(UTC+00:00)

COSMOS 2455 - Pass Details

Date: 14 November 2019
Orbit: 902 x 908 km, 67.1° (Epoch: 15 December)

Event Time Altitude Azimuth Distance (km) Brightness Sun altitude
Exits shadow 04:27:07 11° 343° (NNW) 2,519 5.0 -23.7°
Maximum altitude 04:32:21 35° 48° (NE) 1,426 4.2 -22.8°
Drops below altitude 10° 04:37:48 10° 113° (ESE) 2,586 6.2 -21.8°
Sets 04:40:32 0° 122° (ESE) 3,523 7.0 -21.3°
